SKW4729 KMRY-KSFO

Flight info

Callsign SKW4729
Flight time 0h 28m
Altitude 12000
Route SANTY EDDYY
Aircraft E75L/M-SDE3GILORVW/S

Departure

Time 2026-05-06 19:48
Airport Monterey Regional Airport (KMRY)

Arrival

Time 2026-05-06 20:16
Airport San Francisco International Airport (KSFO)
Time Latitude Longitude Altitude Speed Heading
2026-05-06 19:27 36.58748 -121.84940 219 ft 0 kts 293°
2026-05-06 19:44 36.58748 -121.84941 207 ft 0 kts 293°
2026-05-06 19:44 36.58755 -121.84952 215 ft 4 kts 331°
2026-05-06 19:44 36.58772 -121.84913 207 ft 10 kts 91°
2026-05-06 19:45 36.58744 -121.84809 212 ft 14 kts 113°
2026-05-06 19:45 36.58704 -121.84689 208 ft 16 kts 113°
2026-05-06 19:45 36.58646 -121.84565 215 ft 17 kts 111°
2026-05-06 19:45 36.58599 -121.84422 207 ft 20 kts 112°
2026-05-06 19:46 36.58542 -121.84254 207 ft 22 kts 112°
2026-05-06 19:46 36.58481 -121.84072 213 ft 24 kts 113°
2026-05-06 19:46 36.58414 -121.83877 207 ft 25 kts 113°
2026-05-06 19:46 36.58344 -121.83671 211 ft 27 kts 113°
2026-05-06 19:47 36.58282 -121.83448 207 ft 27 kts 96°
2026-05-06 19:47 36.58358 -121.83417 212 ft 17 kts 292°
2026-05-06 19:47 36.58435 -121.83643 209 ft 60 kts 292°
2026-05-06 19:47 36.58709 -121.84457 213 ft 141 kts 292°
2026-05-06 19:48 36.59082 -121.85648 1115 ft 141 kts 289°
2026-05-06 19:48 36.59479 -121.86869 1891 ft 170 kts 303°
2026-05-06 19:48 36.60367 -121.87894 2605 ft 182 kts 335°
2026-05-06 19:48 36.61588 -121.88468 3256 ft 195 kts 341°
2026-05-06 19:49 36.62923 -121.89083 3936 ft 214 kts 339°
2026-05-06 19:49 36.64384 -121.89827 4589 ft 238 kts 338°
2026-05-06 19:49 36.65954 -121.90663 5426 ft 255 kts 338°
2026-05-06 19:49 36.67694 -121.91590 5929 ft 284 kts 338°
2026-05-06 19:50 36.69591 -121.92597 6676 ft 308 kts 338°
2026-05-06 19:50 36.71627 -121.93675 7427 ft 326 kts 338°
2026-05-06 19:50 36.73017 -121.94412 8086 ft 330 kts 338°
2026-05-06 19:50 36.75791 -121.95895 9718 ft 328 kts 338°
2026-05-06 19:51 36.77930 -121.97031 10474 ft 341 kts 338°
2026-05-06 19:51 36.80136 -121.98180 11370 ft 346 kts 339°
2026-05-06 19:51 36.82379 -121.99346 12074 ft 356 kts 339°
2026-05-06 19:51 36.84723 -122.00550 12194 ft 370 kts 339°
2026-05-06 19:52 36.86315 -122.01357 11839 ft 374 kts 339°
2026-05-06 19:52 36.88692 -122.02557 11770 ft 364 kts 339°
2026-05-06 19:52 36.91029 -122.03755 12598 ft 364 kts 339°
2026-05-06 19:52 36.93408 -122.04978 13337 ft 376 kts 340°
2026-05-06 19:53 36.95843 -122.06222 13614 ft 383 kts 340°
2026-05-06 19:53 36.98350 -122.07359 13166 ft 381 kts 348°
2026-05-06 19:53 37.00945 -122.07857 12867 ft 374 kts 357°
2026-05-06 19:53 37.03537 -122.08057 12607 ft 373 kts 358°
2026-05-06 19:54 37.06121 -122.08270 12287 ft 371 kts 357°
2026-05-06 19:54 37.08699 -122.08529 11747 ft 373 kts 356°
2026-05-06 19:54 37.11223 -122.08809 11491 ft 356 kts 356°
2026-05-06 19:54 37.13675 -122.09089 11021 ft 353 kts 356°
2026-05-06 19:55 37.16111 -122.09361 10518 ft 350 kts 355°
2026-05-06 19:55 37.18521 -122.09639 10024 ft 346 kts 355°
2026-05-06 19:55 37.20868 -122.09907 9714 ft 332 kts 355°
2026-05-06 19:55 37.23158 -122.10171 9217 ft 330 kts 355°
2026-05-06 19:56 37.25448 -122.10439 8743 ft 331 kts 355°
2026-05-06 19:56 37.27742 -122.10710 8283 ft 331 kts 355°
2026-05-06 19:56 37.30030 -122.10981 7812 ft 329 kts 355°
2026-05-06 19:56 37.32297 -122.11246 7382 ft 325 kts 355°
2026-05-06 19:57 37.34515 -122.11504 6929 ft 313 kts 355°
2026-05-06 19:57 37.36600 -122.11750 6487 ft 289 kts 355°
2026-05-06 19:57 37.38521 -122.12009 6114 ft 265 kts 351°
2026-05-06 19:57 37.40204 -122.12559 5801 ft 236 kts 343°
2026-05-06 19:58 37.41697 -122.13164 5476 ft 216 kts 343°
2026-05-06 19:58 37.43075 -122.13695 5189 ft 198 kts 345°
2026-05-06 19:58 37.44346 -122.14155 4948 ft 184 kts 346°
2026-05-06 19:58 37.45544 -122.14570 4793 ft 175 kts 346°
2026-05-06 19:59 37.46696 -122.14962 4723 ft 172 kts 346°
2026-05-06 19:59 37.47878 -122.15364 4692 ft 178 kts 346°
2026-05-06 19:59 37.49082 -122.15772 4407 ft 183 kts 346°
2026-05-06 19:59 37.50307 -122.16188 4050 ft 180 kts 346°
2026-05-06 20:00 37.51500 -122.16592 3703 ft 176 kts 347°
2026-05-06 20:00 37.52642 -122.17080 3384 ft 172 kts 331°
2026-05-06 20:00 37.53570 -122.17993 3129 ft 167 kts 321°
2026-05-06 20:00 37.54424 -122.19122 2931 ft 188 kts 302°
2026-05-06 20:01 37.55009 -122.20628 2701 ft 193 kts 295°
2026-05-06 20:01 37.55616 -122.22123 2450 ft 191 kts 301°
2026-05-06 20:01 37.56287 -122.23551 2177 ft 187 kts 298°
2026-05-06 20:01 37.56876 -122.24983 1927 ft 179 kts 296°
2026-05-06 20:02 37.57444 -122.26377 1690 ft 181 kts 297°
2026-05-06 20:02 37.58041 -122.27783 1443 ft 182 kts 298°
2026-05-06 20:02 37.58796 -122.29574 1132 ft 180 kts 296°
2026-05-06 20:02 37.59490 -122.31252 835 ft 181 kts 298°
2026-05-06 20:03 37.60042 -122.32559 619 ft 157 kts 297°
2026-05-06 20:03 37.60532 -122.33730 415 ft 145 kts 297°
2026-05-06 20:03 37.60982 -122.34808 195 ft 137 kts 297°
2026-05-06 20:03 37.61371 -122.35800 20 ft 107 kts 298°
2026-05-06 20:04 37.61755 -122.36702 320 ft 128 kts 298°
2026-05-06 20:04 37.62215 -122.37735 1095 ft 141 kts 300°
2026-05-06 20:04 37.62674 -122.38933 1858 ft 160 kts 294°
2026-05-06 20:04 37.63153 -122.40154 2925 ft 151 kts 298°
2026-05-06 20:05 37.63614 -122.41365 3684 ft 166 kts 298°
2026-05-06 20:05 37.64277 -122.42761 3925 ft 209 kts 317°
2026-05-06 20:05 37.65570 -122.43598 3919 ft 200 kts 353°
2026-05-06 20:05 37.66869 -122.43330 3569 ft 192 kts 23°
2026-05-06 20:06 37.68081 -122.42642 3217 ft 182 kts 23°
2026-05-06 20:06 37.69226 -122.42037 3382 ft 187 kts 22°
2026-05-06 20:06 37.70498 -122.41359 3586 ft 207 kts 23°
2026-05-06 20:06 37.71850 -122.40624 3784 ft 216 kts 23°
2026-05-06 20:07 37.73228 -122.39799 3938 ft 222 kts 32°
2026-05-06 20:07 37.74183 -122.38272 4022 ft 229 kts 67°
2026-05-06 20:07 37.74271 -122.36268 4019 ft 235 kts 102°
2026-05-06 20:07 37.73546 -122.34416 4058 ft 236 kts 119°
2026-05-06 20:08 37.72727 -122.32610 4087 ft 237 kts 118°
2026-05-06 20:08 37.71918 -122.30795 4038 ft 237 kts 118°
2026-05-06 20:08 37.71107 -122.28979 3816 ft 236 kts 118°
2026-05-06 20:08 37.70307 -122.27179 3601 ft 234 kts 118°
2026-05-06 20:09 37.69504 -122.25401 3402 ft 232 kts 118°
2026-05-06 20:09 37.68709 -122.23621 3139 ft 233 kts 118°
2026-05-06 20:09 37.67956 -122.21903 2837 ft 212 kts 118°
2026-05-06 20:09 37.67292 -122.20356 2600 ft 190 kts 117°
2026-05-06 20:10 37.66695 -122.18956 2375 ft 174 kts 118°
2026-05-06 20:10 37.66077 -122.17706 2198 ft 170 kts 137°
2026-05-06 20:10 37.65013 -122.17204 2036 ft 165 kts 186°
2026-05-06 20:10 37.63917 -122.17514 1981 ft 161 kts 192°
2026-05-06 20:11 37.62834 -122.17888 1904 ft 161 kts 210°
2026-05-06 20:11 37.61829 -122.18528 1856 ft 163 kts 207°
2026-05-06 20:11 37.60803 -122.19144 1783 ft 162 kts 207°
2026-05-06 20:11 37.59787 -122.19740 1823 ft 168 kts 208°
2026-05-06 20:12 37.58701 -122.20399 1862 ft 175 kts 207°
2026-05-06 20:12 37.57580 -122.21087 1896 ft 181 kts 208°
2026-05-06 20:12 37.56437 -122.21784 1840 ft 184 kts 209°
2026-05-06 20:12 37.55628 -122.22911 1728 ft 175 kts 259°
2026-05-06 20:13 37.56010 -122.24278 1789 ft 172 kts 316°
2026-05-06 20:13 37.56929 -122.25280 2010 ft 179 kts 311°
2026-05-06 20:13 37.57582 -122.26637 1619 ft 180 kts 292°
2026-05-06 20:13 37.58084 -122.28000 1408 ft 165 kts 298°
2026-05-06 20:14 37.58633 -122.29178 1166 ft 148 kts 298°
2026-05-06 20:14 37.59113 -122.30335 1009 ft 149 kts 295°
2026-05-06 20:14 37.59578 -122.31471 795 ft 141 kts 298°
2026-05-06 20:14 37.60051 -122.32575 630 ft 146 kts 297°
2026-05-06 20:15 37.60515 -122.33698 419 ft 140 kts 297°
2026-05-06 20:15 37.60960 -122.34767 248 ft 137 kts 297°
2026-05-06 20:15 37.61402 -122.35834 66 ft 137 kts 296°
2026-05-06 20:15 37.61826 -122.36852 20 ft 119 kts 297°
2026-05-06 20:16 37.62148 -122.37630 21 ft 85 kts 297°
2026-05-06 20:16 37.62407 -122.38237 20 ft 72 kts 298°
2026-05-06 20:16 37.62626 -122.38760 20 ft 63 kts 297°
2026-05-06 20:16 37.62725 -122.39016 20 ft 12 kts 266°
2026-05-06 20:17 37.62676 -122.39068 20 ft 9 kts 211°
2026-05-06 20:17 37.62647 -122.39088 20 ft 0 kts 206°
2026-05-06 20:28 37.62632 -122.39098 20 ft 7 kts 206°
2026-05-06 20:28 37.62574 -122.39134 20 ft 11 kts 207°
2026-05-06 20:28 37.62502 -122.39182 20 ft 13 kts 208°
2026-05-06 20:28 37.62442 -122.39162 20 ft 10 kts 117°
2026-05-06 20:29 37.62405 -122.39072 20 ft 13 kts 117°
2026-05-06 20:29 37.62358 -122.38961 20 ft 16 kts 118°
2026-05-06 20:29 37.62303 -122.38831 20 ft 18 kts 118°
2026-05-06 20:29 37.62238 -122.38683 22 ft 20 kts 119°
2026-05-06 20:30 37.62187 -122.38629 20 ft 7 kts 205°
2026-05-06 20:30 37.62109 -122.38541 20 ft 9 kts 130°
2026-05-06 20:30 37.62047 -122.38539 21 ft 11 kts 206°
2026-05-06 20:31 37.61997 -122.38566 20 ft 1 kts 184°
2026-05-06 20:31 37.61991 -122.38565 20 ft 2 kts 175°
2026-05-06 20:31 37.61966 -122.38567 20 ft 6 kts 187°
2026-05-06 20:31 37.61919 -122.38575 20 ft 8 kts 188°
2026-05-06 20:32 37.61888 -122.38581 20 ft 0 kts 187°